SCP
0 0 0 0 0 0 0 0 0 0 0 -0 0 0 -0 0 0 0 -0 -0 -0 0 0 0 0 -0 -0 -0 -0 -0 -0 -0 -0 -0 -0 -0 -0 -0 -0 -0 0 0 0
0 0 0 0 0 0 0 0 0 0 0 -0 0 0 0 0 0 0 -0 0 0 0 -0 -0 -0 -0 -0 -0 -0 -0 -0 -0 -0 -0 -0 -0 -0 0 0 0 0 0 0
0 0 0 0 0 0 0 0 0 -0 0 0 0 0 0 0 0 0 0 0 0 -0 -0 -0 -0 -0 -0 -0 -0 -0 -0 0 0 -0 -0 -0 0 0 0 0 0 0 0
0 0 0 0 0 0 0 0 0 -0 -0 0 0 0 0 0 0 -0 0 0 0 0 0 0 -0 -0 0 -0 -0 -0 0 0 0 0 0 0 0 0 0 0 0 0 0
0 0 0 0 0 0 0 0 0 0 -0 -0 0 0 0 0 0 0 0 0 -0 0 0 -0 -0 -0 0 0 0 0 0 0 0 0 0 0 0 0 0 0 0 0 0
0 0 0 0 0 0 0 0 0 0 0 -0 -0 0 0 0 0 0 -0 0 0 0 0 0 0 0 -0 -0 -0 -0 0 0 -0 0 0 0 0 0 0 0 0 0 0
0 0 0 0 0 0 0 0 0 0 0 0 -0 0 0 0 0 0 0 0 0 0 0 0 0 0 0 -0 -0 -0 -0 -0 -0 0 0 0 0 0 0 0 0 0 0
0 0 0 0 0 0 0 0 0 0 0 0 0 0 0 0 0 0 0 0 0 0 0 0 0 0 0 0 0 -0 -0 0 0 0 0 0 0 0 0 0 0 0 0
0 0 0 0 0 0 0 0 0 0 0 0 0 0 0 0 0 0 0 0 0 0 0 0 0 0 0 0 0 0 0 0 0 0 0 0 0 0 0 0 0 0 0
0 0 0 0 0 0 0 0 0 0 0 0 0 0 0 0 0 0 0 0 0 0 0 0 0 0 0 0 0 0 0 0 0 0 0 0 0 0 0 0 0 0 0
0 0 0 0 0 0 0 0 0 0 0 0 0 0 0 0 0 0 0 0 0 0 0 0 0 0 0 0 0 0 0 0 0 0 0 0 0 0 0 0 0 0 0
0 0 0 0 0 0 0 0 0 0 0 0 0 0 0 0 0 0 0 0 0 0 0 0 0 0 0 0 0 0 0 0 0 0 0 0 0 0 0 0 0 0 0
1 0 0 0 0 0 0 0 0 0 0 0 0 0 0 0 0 0 0 0 0 0 0 0 0 0 0 0 0 0 0 0 0 0 0 0 0 0 0 0 0 0 0
0 1 1 1 1 0 0 0 0 0 0 0 0 0 0 0 0 0 0 0 0 0 0 0 0 0 0 0 0 0 0 0 0 0 0 0 0 0 0 0 0 0 0
1 1 1 1 1 1 1 0 1 1 1 0 0 0 0 0 0 0 0 0 0 0 0 0 0 0 0 0 0 0 0 0 0 0 0 0 0 0 0 0 0 0 0
0 0 1 1 1 1 1 0 0 0 0 0 0 0 0 0 0 0 0 0 0 0 0 0 0 0 0 0 0 0 0 0 0 0 0 0 0 0 0 0 0 0 0
0 1 1 1 1 0 0 0 0 1 0 0 0 0 0 0 0 0 0 0 0 0 0 0 0 0 0 0 0 0 0 0 0 0 0 0 0 0 0 0 0 0 0
1 1 1 1 0 0 0 0 0 0 0 0 0 0 0 0 0 0 0 0 0 0 0 0 0 0 0 0 0 0 0 0 0 0 0 0 0 0 0 0 0 0 0
0 0 0 0 0 0 0 0 0 0 0 0 0 0 0 0 0 0 0 0 0 0 0 0 0 0 0 0 0 0 0 0 0 0 0 0 0 0 0 0 0 0 0
0 0 0 0 0 0 0 0 0 0 0 0 0 0 0 0 0 0 0 0 0 0 0 0 0 0 0 0 0 0 0 0 0 0 0 0 0 0 0 0 0 0 0
0 0 0 0 0 0 0 0 0 0 0 0 0 0 0 0 0 0 0 0 0 0 0 0 0 0 0 0 0 0 0 0 0 0 0 0 0 0 0 0 0 0 0
0 0 0 0 0 0 0 0 0 0 0 0 0 0 0 0 0 0 0 0 0 0 0 0 0 0 0 0 0 0 0 0 0 0 0 0 0 0 0 0 0 0 0
0 0 0 0 0 0 0 0 0 0 0 0 0 0 0 0 0 0 0 0 0 0 0 0 0 0 0 0 0 0 0 0 0 0 0 0 0 0 0 0 0 0 0
0 0 0 0 0 0 0 0 0 0 0 0 0 0 0 0 0 0 0 0 0 0 0 0 0 0 0 0 0 0 0 0 0 0 0 0 0 0 0 0 0 0 0
0 0 0 0 0 0 0 0 0 0 0 0 0 0 0 0 0 0 0 0 0 0 0 0 0 0 0 0 0 0 0 0 0 0 0 0 0 0 0 0 0 0 0
0 0 0 0 0 0 0 -0 0 0 0 0 0 0 0 0 0 0 0 0 0 0 0 0 0 0 0 0 0 0 0 0 0 0 0 0 0 0 0 0 0 0 0
Wind_Speed_500mb
5 16 12 10 10 11 6 15 15 24 14 12 17 7 4 7 8 12 20 12 5 11 15 15 15 16 17 18 17 16 16 17 16 16 16 16 17 17 16 15 14 12 10
14 12 6 3 8 6 7 15 3 10 5 6 9 11 8 8 9 13 22 16 9 8 9 12 16 18 17 19 20 20 20 21 21 19 19 18 17 16 14 13 11 10 9
19 10 6 9 11 11 15 17 14 13 5 14 3 5 19 19 28 20 12 14 11 7 9 13 15 19 21 21 21 22 21 21 21 20 19 17 16 14 13 12 11 10 9
22 11 9 11 16 14 15 16 9 18 14 12 16 7 8 13 9 14 8 9 11 12 9 9 11 15 17 18 19 19 20 20 20 19 18 17 16 16 15 16 18 18 17
15 17 17 16 18 20 16 16 10 10 21 17 12 25 16 16 16 11 11 9 9 7 4 11 8 9 12 14 15 16 16 16 17 16 16 16 17 17 16 19 20 21 21
16 20 17 19 14 14 15 14 13 13 19 16 15 24 28 23 18 23 21 22 19 14 8 8 1 6 9 10 9 8 9 10 10 12 12 12 13 13 13 15 16 18 19
19 22 22 21 10 5 13 11 19 18 25 19 27 21 35 34 28 31 30 31 27 23 21 13 12 11 10 6 9 11 12 12 9 7 7 5 2 3 6 8 10 14 16
20 23 25 20 20 16 17 22 23 30 26 27 26 24 22 36 41 40 39 41 38 32 34 29 25 23 20 18 18 17 16 16 15 15 14 11 9 6 6 7 6 8 13
14 14 15 18 25 23 26 27 32 28 29 33 33 29 19 22 17 39 58 55 49 44 45 43 41 38 33 30 24 26 25 24 26 23 22 21 18 15 13 14 13 11 12
9 8 11 13 21 24 29 28 30 29 27 34 37 43 45 43 46 33 28 62 60 55 51 54 55 52 48 43 37 36 33 33 35 33 30 30 27 24 22 20 20 17 17
10 9 13 14 14 15 16 25 33 32 33 32 47 40 36 51 52 45 38 34 57 68 62 63 61 62 61 53 51 48 45 41 39 38 34 35 34 31 28 27 25 25 25
19 17 18 18 13 19 18 20 26 39 43 44 44 53 50 49 40 49 51 47 51 54 51 65 64 66 67 66 57 52 47 49 40 36 37 35 37 37 35 33 32 33 31
20 19 22 23 19 18 21 24 28 31 40 50 53 54 61 61 57 52 45 47 47 49 49 47 57 71 72 73 69 57 50 51 46 42 40 42 42 44 42 40 40 35 34
24 29 29 25 31 31 31 35 36 35 38 44 51 56 60 67 70 70 63 49 53 57 53 60 58 47 60 78 75 64 55 54 51 46 45 43 43 46 45 44 41 39 37
25 32 32 36 34 38 41 41 43 45 46 49 52 57 62 68 67 75 78 72 55 57 71 70 65 50 47 66 67 63 62 60 53 54 50 41 40 39 39 37 38 38 41
35 30 38 41 39 36 41 45 44 45 52 53 56 62 64 68 73 75 75 68 73 65 61 70 60 52 36 63 68 67 65 59 57 56 49 45 39 34 33 35 38 42 42
23 23 26 27 26 28 32 39 41 45 47 51 55 57 59 59 66 73 82 79 68 71 68 73 64 56 42 38 58 63 66 60 58 54 52 48 43 39 33 33 34 37 35
16 14 20 29 36 32 32 33 34 38 43 44 45 47 45 50 62 71 81 90 50 53 60 68 61 58 55 43 40 53 55 58 60 60 55 46 41 35 34 34 30 31 28
17 30 34 29 24 28 31 32 38 32 32 32 35 37 36 38 41 42 50 43 42 46 56 61 61 60 62 64 59 46 60 62 59 61 57 52 43 37 33 30 28 27 24
34 35 41 40 31 29 26 24 33 34 31 31 33 38 43 40 41 43 39 35 34 38 44 55 57 72 73 72 74 69 66 72 72 60 61 58 51 47 36 27 26 24 21
33 39 42 39 38 32 36 34 34 36 38 38 39 39 38 40 43 40 40 39 41 42 41 43 53 66 73 83 85 85 80 74 75 86 65 64 58 48 39 37 27 26 19
36 36 35 35 32 32 37 43 41 43 42 43 49 49 40 37 39 39 40 41 40 38 41 40 38 42 55 76 70 89 95 95 84 83 74 73 63 50 46 41 29 28 23
33 46 42 26 29 40 33 40 43 44 41 42 43 44 48 44 42 46 43 42 42 40 36 34 34 34 45 46 31 71 78 84 81 81 78 78 69 62 51 41 30 26 24
40 43 33 30 42 36 38 44 44 40 46 51 43 37 42 39 43 47 48 39 38 42 42 38 38 39 37 35 43 41 53 51 70 82 73 70 57 68 55 40 32 29 25
40 35 36 44 46 46 47 49 38 34 47 46 42 49 40 54 50 42 44 39 33 34 36 37 40 38 32 29 30 31 38 48 67 62 50 54 51 59 48 43 38 32 26
38 41 41 49 49 51 52 44 31 42 46 39 36 39 39 38 45 46 44 51 49 44 41 43 41 40 35 32 32 30 42 50 62 58 65 56 52 54 42 40 37 36 32
Wind_Direction_500mb
270 299 321 329 357 330 355 354 350 126 89 74 71 87 166 74 37 18 4 5 58 85 105 111 117 125 134 144 150 151 142 135 130 126 119 114 109 108 106 102 101 100 97
252 294 292 319 314 313 303 306 34 158 68 188 295 257 120 89 25 15 10 13 38 71 100 119 123 125 127 130 131 130 130 129 126 122 116 110 104 98 95 89 84 79 75
302 279 241 279 276 260 280 300 264 205 83 170 234 34 266 299 298 304 358 28 37 62 96 123 123 128 131 130 129 129 127 123 118 117 114 110 106 97 89 81 75 69 67
304 288 210 268 264 260 287 292 264 226 193 168 226 259 260 293 344 319 310 6 37 41 84 103 128 140 141 139 138 135 132 130 125 121 115 106 96 86 79 75 70 66 61
292 312 256 256 270 247 260 285 266 269 219 208 220 239 251 286 301 308 284 293 322 18 63 68 86 137 149 153 151 148 143 140 135 126 114 105 92 83 77 68 66 61 57
264 274 275 287 276 260 238 269 279 256 225 221 236 249 245 272 272 280 283 278 292 280 282 273 333 139 142 158 164 171 171 163 149 137 123 109 92 76 67 63 61 54 48
268 268 269 276 252 338 259 258 267 252 237 231 256 254 245 255 259 252 261 263 268 268 254 281 253 250 236 211 209 210 212 208 204 198 198 198 171 55 49 49 47 43 36
267 268 267 261 234 207 233 246 251 252 256 229 247 260 256 241 242 248 245 248 262 258 257 252 250 242 244 242 251 250 246 236 236 246 248 239 242 263 298 311 338 6 12
254 275 266 241 235 235 237 247 243 249 253 232 224 241 241 244 222 245 239 247 249 253 257 257 255 250 244 243 243 250 252 255 249 252 251 247 250 258 268 279 290 301 328
281 15 10 290 244 247 244 259 249 255 260 249 226 231 242 255 269 268 258 244 248 251 251 255 253 251 248 250 247 252 251 247 253 251 255 256 256 255 259 267 275 280 301
250 311 324 334 342 300 277 257 255 250 258 264 238 237 241 249 258 259 259 244 238 247 250 249 254 253 248 252 253 247 251 249 256 258 258 258 264 263 257 267 271 268 279
266 271 291 295 311 321 304 291 270 255 252 255 255 253 251 251 255 258 255 261 251 249 247 248 247 245 250 250 255 253 251 248 257 253 257 261 264 262 258 262 263 266 259
248 250 265 277 287 287 306 310 293 275 254 255 261 258 254 253 253 250 257 260 261 260 260 242 252 250 249 250 249 249 246 250 256 245 252 253 260 264 263 263 265 264 260
258 264 268 277 288 285 296 299 297 292 282 271 266 264 263 258 257 255 255 262 264 255 251 251 251 270 252 245 245 243 243 243 241 241 244 243 253 258 256 259 257 260 262
277 285 279 281 285 290 292 290 288 287 287 282 275 270 266 266 269 263 253 253 256 264 261 258 256 263 257 246 240 236 234 230 231 234 236 240 251 251 249 248 250 256 268
298 284 280 282 280 289 294 291 290 288 286 287 282 280 277 270 267 266 269 254 250 251 259 261 264 249 259 240 237 230 231 226 226 231 238 243 243 244 245 249 257 262 261
320 306 305 311 308 316 311 300 299 297 297 298 296 289 284 282 278 273 268 263 254 251 250 256 259 258 266 259 240 235 227 225 231 236 244 238 244 250 244 251 259 260 257
313 335 337 333 329 327 322 326 325 317 309 302 301 299 299 297 293 286 273 258 259 251 246 253 260 261 257 241 245 229 228 233 233 235 236 237 246 239 243 250 257 257 258
308 318 319 318 316 316 320 316 320 317 317 323 322 322 329 324 320 313 307 317 319 262 255 262 256 254 249 251 243 238 228 226 229 226 231 241 240 234 242 252 250 244 245
305 312 315 316 308 316 326 329 326 322 315 313 312 314 319 322 319 316 311 311 301 290 281 277 265 265 257 247 245 239 237 240 229 228 234 235 229 249 243 232 222 232 232
305 303 308 315 311 318 324 329 336 334 331 322 317 316 313 313 312 313 308 309 309 299 288 289 287 276 255 252 250 243 230 227 236 230 225 231 236 247 228 211 223 227 239
305 323 340 336 334 338 337 329 327 325 322 322 326 324 317 314 316 317 313 310 308 302 293 285 295 276 270 246 256 250 241 241 234 238 238 231 241 235 225 217 227 225 243
347 344 333 335 330 329 333 341 339 335 330 323 329 328 323 319 315 315 308 302 297 302 308 291 287 289 294 270 271 249 248 244 247 244 232 238 243 234 225 212 215 222 233
335 349 344 333 331 333 320 316 322 316 320 313 311 310 315 313 312 315 310 305 302 291 299 294 291 298 283 271 281 261 251 255 257 252 245 238 238 224 208 206 215 216 238
326 339 329 324 328 326 321 336 300 325 325 321 313 313 311 304 302 305 314 318 301 294 299 287 290 289 285 275 267 267 252 249 243 247 250 240 227 206 202 208 209 214 221
321 311 311 313 315 318 321 323 314 320 317 313 312 306 306 303 300 298 302 308 307 298 283 281 282 281 279 276 261 266 259 253 243 234 235 216 191 186 196 206 204 206 211
Wind_Speed_850mb
5 16 12 10 10 11 6 15 15 24 14 12 17 7 4 7 8 12 20 12 5 11 15 15 15 16 17 18 17 16 16 17 16 16 16 16 17 17 16 15 14 12 10
14 12 6 3 8 6 7 15 3 10 5 6 9 11 8 8 9 13 22 16 9 8 9 12 16 18 17 19 20 20 20 21 21 19 19 18 17 16 14 13 11 10 9
19 10 6 9 11 11 15 17 14 13 5 14 3 5 19 19 28 20 12 14 11 7 9 13 15 19 21 21 21 22 21 21 21 20 19 17 16 14 13 12 11 10 9
22 11 9 11 16 14 15 16 9 18 14 12 16 7 8 13 9 14 8 9 11 12 9 9 11 15 17 18 19 19 20 20 20 19 18 17 16 16 15 16 18 18 17
15 17 17 16 18 20 16 16 10 10 21 17 12 25 16 16 16 11 11 9 9 7 4 11 8 9 12 14 15 16 16 16 17 16 16 16 17 17 16 19 20 21 21
16 20 17 19 14 14 15 14 13 13 19 16 15 24 28 23 18 23 21 22 19 14 8 8 1 6 9 10 9 8 9 10 10 12 12 12 13 13 13 15 16 18 19
19 22 22 21 10 5 13 11 19 18 25 19 27 21 35 34 28 31 30 31 27 23 21 13 12 11 10 6 9 11 12 12 9 7 7 5 2 3 6 8 10 14 16
20 23 25 20 20 16 17 22 23 30 26 27 26 24 22 36 41 40 39 41 38 32 34 29 25 23 20 18 18 17 16 16 15 15 14 11 9 6 6 7 6 8 13
14 14 15 18 25 23 26 27 32 28 29 33 33 29 19 22 17 39 58 55 49 44 45 43 41 38 33 30 24 26 25 24 26 23 22 21 18 15 13 14 13 11 12
9 8 11 13 21 24 29 28 30 29 27 34 37 43 45 43 46 33 28 62 60 55 51 54 55 52 48 43 37 36 33 33 35 33 30 30 27 24 22 20 20 17 17
10 9 13 14 14 15 16 25 33 32 33 32 47 40 36 51 52 45 38 34 57 68 62 63 61 62 61 53 51 48 45 41 39 38 34 35 34 31 28 27 25 25 25
19 17 18 18 13 19 18 20 26 39 43 44 44 53 50 49 40 49 51 47 51 54 51 65 64 66 67 66 57 52 47 49 40 36 37 35 37 37 35 33 32 33 31
20 19 22 23 19 18 21 24 28 31 40 50 53 54 61 61 57 52 45 47 47 49 49 47 57 71 72 73 69 57 50 51 46 42 40 42 42 44 42 40 40 35 34
24 29 29 25 31 31 31 35 36 35 38 44 51 56 60 67 70 70 63 49 53 57 53 60 58 47 60 78 75 64 55 54 51 46 45 43 43 46 45 44 41 39 37
25 32 32 36 34 38 41 41 43 45 46 49 52 57 62 68 67 75 78 72 55 57 71 70 65 50 47 66 67 63 62 60 53 54 50 41 40 39 39 37 38 38 41
35 30 38 41 39 36 41 45 44 45 52 53 56 62 64 68 73 75 75 68 73 65 61 70 60 52 36 63 68 67 65 59 57 56 49 45 39 34 33 35 38 42 42
23 23 26 27 26 28 32 39 41 45 47 51 55 57 59 59 66 73 82 79 68 71 68 73 64 56 42 38 58 63 66 60 58 54 52 48 43 39 33 33 34 37 35
16 14 20 29 36 32 32 33 34 38 43 44 45 47 45 50 62 71 81 90 50 53 60 68 61 58 55 43 40 53 55 58 60 60 55 46 41 35 34 34 30 31 28
17 30 34 29 24 28 31 32 38 32 32 32 35 37 36 38 41 42 50 43 42 46 56 61 61 60 62 64 59 46 60 62 59 61 57 52 43 37 33 30 28 27 24
34 35 41 40 31 29 26 24 33 34 31 31 33 38 43 40 41 43 39 35 34 38 44 55 57 72 73 72 74 69 66 72 72 60 61 58 51 47 36 27 26 24 21
33 39 42 39 38 32 36 34 34 36 38 38 39 39 38 40 43 40 40 39 41 42 41 43 53 66 73 83 85 85 80 74 75 86 65 64 58 48 39 37 27 26 19
36 36 35 35 32 32 37 43 41 43 42 43 49 49 40 37 39 39 40 41 40 38 41 40 38 42 55 76 70 89 95 95 84 83 74 73 63 50 46 41 29 28 23
33 46 42 26 29 40 33 40 43 44 41 42 43 44 48 44 42 46 43 42 42 40 36 34 34 34 45 46 31 71 78 84 81 81 78 78 69 62 51 41 30 26 24
40 43 33 30 42 36 38 44 44 40 46 51 43 37 42 39 43 47 48 39 38 42 42 38 38 39 37 35 43 41 53 51 70 82 73 70 57 68 55 40 32 29 25
40 35 36 44 46 46 47 49 38 34 47 46 42 49 40 54 50 42 44 39 33 34 36 37 40 38 32 29 30 31 38 48 67 62 50 54 51 59 48 43 38 32 26
38 41 41 49 49 51 52 44 31 42 46 39 36 39 39 38 45 46 44 51 49 44 41 43 41 40 35 32 32 30 42 50 62 58 65 56 52 54 42 40 37 36 32
Wind_Direction_850mb
270 299 321 329 357 330 355 354 350 126 89 74 71 87 166 74 37 18 4 5 58 85 105 111 117 125 134 144 150 151 142 135 130 126 119 114 109 108 106 102 101 100 97
252 294 292 319 314 313 303 306 34 158 68 188 295 257 120 89 25 15 10 13 38 71 100 119 123 125 127 130 131 130 130 129 126 122 116 110 104 98 95 89 84 79 75
302 279 241 279 276 260 280 300 264 205 83 170 234 34 266 299 298 304 358 28 37 62 96 123 123 128 131 130 129 129 127 123 118 117 114 110 106 97 89 81 75 69 67
304 288 210 268 264 260 287 292 264 226 193 168 226 259 260 293 344 319 310 6 37 41 84 103 128 140 141 139 138 135 132 130 125 121 115 106 96 86 79 75 70 66 61
292 312 256 256 270 247 260 285 266 269 219 208 220 239 251 286 301 308 284 293 322 18 63 68 86 137 149 153 151 148 143 140 135 126 114 105 92 83 77 68 66 61 57
264 274 275 287 276 260 238 269 279 256 225 221 236 249 245 272 272 280 283 278 292 280 282 273 333 139 142 158 164 171 171 163 149 137 123 109 92 76 67 63 61 54 48
268 268 269 276 252 338 259 258 267 252 237 231 256 254 245 255 259 252 261 263 268 268 254 281 253 250 236 211 209 210 212 208 204 198 198 198 171 55 49 49 47 43 36
267 268 267 261 234 207 233 246 251 252 256 229 247 260 256 241 242 248 245 248 262 258 257 252 250 242 244 242 251 250 246 236 236 246 248 239 242 263 298 311 338 6 12
254 275 266 241 235 235 237 247 243 249 253 232 224 241 241 244 222 245 239 247 249 253 257 257 255 250 244 243 243 250 252 255 249 252 251 247 250 258 268 279 290 301 328
281 15 10 290 244 247 244 259 249 255 260 249 226 231 242 255 269 268 258 244 248 251 251 255 253 251 248 250 247 252 251 247 253 251 255 256 256 255 259 267 275 280 301
250 311 324 334 342 300 277 257 255 250 258 264 238 237 241 249 258 259 259 244 238 247 250 249 254 253 248 252 253 247 251 249 256 258 258 258 264 263 257 267 271 268 279
266 271 291 295 311 321 304 291 270 255 252 255 255 253 251 251 255 258 255 261 251 249 247 248 247 245 250 250 255 253 251 248 257 253 257 261 264 262 258 262 263 266 259
248 250 265 277 287 287 306 310 293 275 254 255 261 258 254 253 253 250 257 260 261 260 260 242 252 250 249 250 249 249 246 250 256 245 252 253 260 264 263 263 265 264 260
258 264 268 277 288 285 296 299 297 292 282 271 266 264 263 258 257 255 255 262 264 255 251 251 251 270 252 245 245 243 243 243 241 241 244 243 253 258 256 259 257 260 262
277 285 279 281 285 290 292 290 288 287 287 282 275 270 266 266 269 263 253 253 256 264 261 258 256 263 257 246 240 236 234 230 231 234 236 240 251 251 249 248 250 256 268
298 284 280 282 280 289 294 291 290 288 286 287 282 280 277 270 267 266 269 254 250 251 259 261 264 249 259 240 237 230 231 226 226 231 238 243 243 244 245 249 257 262 261
320 306 305 311 308 316 311 300 299 297 297 298 296 289 284 282 278 273 268 263 254 251 250 256 259 258 266 259 240 235 227 225 231 236 244 238 244 250 244 251 259 260 257
313 335 337 333 329 327 322 326 325 317 309 302 301 299 299 297 293 286 273 258 259 251 246 253 260 261 257 241 245 229 228 233 233 235 236 237 246 239 243 250 257 257 258
308 318 319 318 316 316 320 316 320 317 317 323 322 322 329 324 320 313 307 317 319 262 255 262 256 254 249 251 243 238 228 226 229 226 231 241 240 234 242 252 250 244 245
305 312 315 316 308 316 326 329 326 322 315 313 312 314 319 322 319 316 311 311 301 290 281 277 265 265 257 247 245 239 237 240 229 228 234 235 229 249 243 232 222 232 232
305 303 308 315 311 318 324 329 336 334 331 322 317 316 313 313 312 313 308 309 309 299 288 289 287 276 255 252 250 243 230 227 236 230 225 231 236 247 228 211 223 227 239
305 323 340 336 334 338 337 329 327 325 322 322 326 324 317 314 316 317 313 310 308 302 293 285 295 276 270 246 256 250 241 241 234 238 238 231 241 235 225 217 227 225 243
347 344 333 335 330 329 333 341 339 335 330 323 329 328 323 319 315 315 308 302 297 302 308 291 287 289 294 270 271 249 248 244 247 244 232 238 243 234 225 212 215 222 233
335 349 344 333 331 333 320 316 322 316 320 313 311 310 315 313 312 315 310 305 302 291 299 294 291 298 283 271 281 261 251 255 257 252 245 238 238 224 208 206 215 216 238
326 339 329 324 328 326 321 336 300 325 325 321 313 313 311 304 302 305 314 318 301 294 299 287 290 289 285 275 267 267 252 249 243 247 250 240 227 206 202 208 209 214 221
321 311 311 313 315 318 321 323 314 320 317 313 312 306 306 303 300 298 302 308 307 298 283 281 282 281 279 276 261 266 259 253 243 234 235 216 191 186 196 206 204 206 211